Location: Unspecified
(0.0000°N, 0.0000°E)
Time: 17:52:12
(UTC+00:00)

STARLINK 1065 - Pass Details

Date: 22 January 2020
Orbit: 548 x 551 km, 53.0° (Epoch: 17 January)

Event Time Altitude Azimuth Distance (km) Brightness Sun altitude
Rises 05:30:09 0° 233° (SW) 2,710 6.8 -9.7°
Reaches altitude 10° 05:32:38 10° 245° (WSW) 1,815 5.8 -9.1°
Maximum altitude 05:36:09 27° 304° (NW) 1,058 4.5 -8.3°
Drops below altitude 10° 05:39:41 10° 3° (N) 1,807 6.1 -7.5°
Sets 05:42:08 0° 16° (NNE) 2,697 7.1 -6.9°
